Location: Appingedam
(53.3222°N, 6.8488°E)
Time: 14:34:45
(UTC+00:00)

EP 1 - Pass Details

Date: 15 May 2026
Orbit: 314 x 1668 km, 63.3° (Epoch: 25 August)

Event Time Altitude Azimuth Distance (km) Brightness Sun altitude
Rises 20:08:18 0° 312° (NW) 2,115 11.3 -5.8°
Reaches altitude 10° 20:10:17 10° 314° (NW) 1,237 9.0 -6.0°
Maximum altitude 20:12:53 83° 40° (NE) 326 4.2 -6.3°
Drops below altitude 10° 20:15:34 10° 131° (SE) 1,269 6.5 -6.5°
Enters shadow 20:15:44 - 131° (SE) 1,339 6.6 -6.6°
